This demonstration page uses our WeatherBlox Daily Observations layout. Learn more.

Left ArrowRight Arrow

40.92945, -100.16068

Hourly Observations for June 12, 2021

Temp ( °F °C ) Dew Point ( °F °C ) Humidity (%) Winds ( mph kmh ) Pressure ( in mb ) Visibility ( mi km ) Precip ( " mm )
12:15 am 00:15 Clear 59 15 48 8.9 67 67 ENE 6 9 30.03 1017 10 16 N/A
12:35 am 00:35 Clear 57 14.1 48 8.7 70 70 E 6 9 30.04 1017 10 16 N/A
12:55 am 00:55 Clear 59 14.9 47 8.6 66 66 N N/A 30.04 1017 10 16 N/A
1:15 am 01:15 Clear 58 14.6 47 8.6 67 67 N N/A 30.05 1018 10 16 N/A
1:35 am 01:35 Clear 55 12.8 48 8.7 76 76 N N/A 30.07 1018 10 16 N/A
1:55 am 01:55 Clear 54 12.1 50 9.8 86 86 N N/A 30.08 1019 10 16 N/A
2:15 am 02:15 Clear 51 10.6 47 8.3 86 86 N 3 6 30.10 1019 10 16 N/A
2:35 am 02:35 Clear 52 10.9 47 8.4 85 85 N 3 6 30.09 1019 10 16 N/A
2:55 am 02:55 Clear 51 10.7 46 8 84 84 NW 3 6 30.10 1019 10 16 N/A
3:15 am 03:15 Clear 51 10.5 48 8.7 89 89 WNW 3 6 30.11 1020 10 16 N/A
3:35 am 03:35 Clear 51 10.6 48 8.9 89 89 WNW 6 9 30.11 1019 10 16 N/A
3:55 am 03:55 Clear 50 10.1 47 8.4 89 89 WNW 5 7 30.11 1020 10 16 N/A
4:15 am 04:15 Clear 49 9.6 46 7.9 89 89 NW 7 11 30.10 1019 10 16 N/A
4:35 am 04:35 Clear 49 9.3 46 7.8 90 90 NW 6 9 30.11 1020 10 16 N/A
4:55 am 04:55 Clear 49 9.2 46 7.8 91 91 WNW 7 11 30.11 1020 10 16 N/A
5:15 am 05:15 Clear 49 9.3 46 8 92 92 WNW 3 6 30.12 1020 10 16 N/A
5:35 am 05:35 Clear 49 9.2 46 8 92 92 N N/A 30.12 1020 10 16 N/A
5:55 am 05:55 Clear 49 9.2 46 7.7 90 90 W 5 7 30.12 1020 10 16 N/A
6:15 am 06:15 Sunny 49 9.5 47 8.1 91 91 WNW 3 6 30.12 1020 10 16 N/A
6:35 am 06:35 Sunny 49 9.2 46 7.8 91 91 WNW 3 6 30.13 1020 10 16 N/A
6:55 am 06:55 Sunny 49 9.4 47 8.1 92 92 N N/A 30.13 1020 10 16 N/A
7:15 am 07:15 Sunny 52 11.1 49 9.5 90 90 N N/A 30.11 1020 10 16 N/A
7:35 am 07:35 Sunny 55 12.8 51 10.5 86 86 N N/A 30.11 1019 10 16 N/A
7:55 am 07:55 Sunny 58 14.4 51 10.5 78 78 N 3 6 30.09 1019 10 16 N/A
8:15 am 08:15 Sunny 61 15.9 52 11 73 73 N N/A 30.09 1019 10 16 N/A
8:35 am 08:35 Sunny 64 17.5 51 10.6 64 64 N N/A 30.07 1018 10 16 N/A
8:55 am 08:55 Sunny 67 19.2 50 10.2 56 56 ESE 5 7 30.06 1018 10 16 N/A
9:15 am 09:15 Sunny 69 20.7 50 10.1 51 51 SE 8 13 30.06 1018 10 16 N/A
9:35 am 09:35 Sunny 71 21.6 50 10.1 48 48 ESE 6 9 30.05 1018 10 16 N/A
9:55 am 09:55 Sunny 72 22.3 49 9.5 44 44 ESE 10 17 30.05 1018 10 16 N/A
10:15 am 10:15 Sunny 74 23.1 49 9.2 41 41 SE 10 17 30.06 1018 10 16 N/A
10:35 am 10:35 Sunny 75 23.7 48 8.7 38 38 SE 8 13 30.05 1018 10 16 N/A
10:55 am 10:55 Sunny 76 24.4 48 8.8 37 37 SSE 10 17 30.04 1017 10 16 N/A
11:15 am 11:15 Sunny 76 24.7 47 8.2 35 35 SE 7 11 30.03 1017 10 16 N/A
11:35 am 11:35 Sunny 78 25.5 47 8.1 33 33 SSE 12 19 30.03 1017 10 16 N/A
11:55 am 11:55 Sunny 78 25.7 47 8.2 33 33 S 7 11 30.02 1017 10 16 N/A
12:15 pm 12:15 Sunny 80 26.5 47 8.3 32 32 SSE 10 17 30.01 1016 10 16 N/A
12:35 pm 12:35 Sunny 80 26.4 46 7.9 31 31 E 6 9 30.01 1016 10 16 N/A
12:55 pm 12:55 Sunny 81 27.3 46 7.6 29 29 SSE 9 15 29.99 1016 10 16 N/A
1:15 pm 13:15 Sunny 81 27.4 45 7.3 28 28 E 7 11 29.98 1015 10 16 N/A
1:35 pm 13:35 Sunny 82 27.9 45 7.3 27 27 ESE 10 17 29.98 1015 10 16 N/A
1:55 pm 13:55 Sunny 83 28.3 45 7.3 27 27 SE 8 13 29.96 1015 10 16 N/A
2:15 pm 14:15 Sunny 83 28.6 45 7 26 26 SE 15 24 29.95 1014 10 16 N/A
2:35 pm 14:35 Sunny 85 29.2 44 6.9 24 24 SE 12 19 29.94 1014 10 16 N/A
2:55 pm 14:55 Sunny 84 28.9 44 6.6 24 24 ESE 10 17 29.94 1014 10 16 N/A
3:15 pm 15:15 Sunny 86 29.9 44 6.8 23 23 SE 12 19 29.93 1014 10 16 N/A
3:35 pm 15:35 Sunny 85 29.4 44 6.4 23 23 ESE 7 11 29.93 1014 10 16 N/A
3:55 pm 15:55 Sunny 86 29.9 43 6.2 22 22 SSE 13 20 29.92 1013 10 16 N/A
4:15 pm 16:15 Sunny 86 29.8 44 6.4 23 23 SSE 9 15 29.91 1013 10 16 N/A
4:35 pm 16:35 Sunny 86 30.1 44 6.6 23 23 SE 13 20 29.90 1012 10 16 N/A
4:55 pm 16:55 Sunny 86 30.1 43 6.1 22 22 SE 13 20 29.90 1012 10 16 N/A
5:15 pm 17:15 Sunny 86 30 44 6.4 23 23 SE 8 13 29.89 1012 10 16 N/A
5:35 pm 17:35 Sunny 86 30.1 44 6.4 22 22 SE 10 17 29.89 1012 10 16 N/A
5:55 pm 17:55 Sunny 86 30.1 44 6.8 23 23 SE 12 19 29.88 1012 10 16 N/A
6:15 pm 18:15 Sunny 86 30.1 42 5.4 21 21 SSE 12 19 29.88 1012 10 16 N/A
6:35 pm 18:35 Sunny 86 29.9 41 5 21 21 SSE 13 20 29.87 1012 10 16 N/A
6:55 pm 18:55 Sunny 85 29.6 40 4.2 20 20 SSE 10 17 29.87 1012 10 16 N/A
7:15 pm 19:15 Sunny 85 29.2 40 4.4 21 21 SE 9 15 29.88 1012 10 16 N/A
7:35 pm 19:35 Sunny 84 28.7 41 4.9 22 22 SSE 9 15 29.88 1012 10 16 N/A
7:55 pm 19:55 Sunny 82 28 44 6.7 26 26 SSE 8 13 29.89 1012 10 16 N/A
8:15 pm 20:15 Sunny 79 26.2 49 9.5 35 35 S 6 9 29.90 1013 10 16 N/A
8:35 pm 20:35 Sunny 76 24.3 52 11 43 43 S 7 11 29.93 1013 10 16 N/A
8:55 pm 20:55 Sunny 74 23.1 51 10.4 45 45 S 7 11 29.94 1014 10 16 N/A
9:15 pm 21:15 Clear 72 22.3 50 10.1 46 46 SSE 5 7 29.94 1014 10 16 N/A
9:35 pm 21:35 Clear 71 21.4 49 9.5 47 47 SSE 5 7 29.96 1015 10 16 N/A
9:55 pm 21:55 Clear 70 20.9 49 9.5 48 48 SE 5 7 29.96 1015 10 16 N/A
10:15 pm 22:15 Clear 69 20.7 49 9.3 48 48 SSE 7 11 29.97 1015 7 11 N/A
10:35 pm 22:35 Clear 69 20.5 49 9.2 48 48 SE 6 9 29.98 1015 10 16 N/A
10:55 pm 22:55 Clear 67 19.4 49 9.3 52 52 SE 7 11 29.99 1015 10 16 N/A
11:15 pm 23:15 Clear 68 20 48 8.8 49 49 SE 6 9 29.98 1015 10 16 N/A
11:35 pm 23:35 Clear 67 19.4 49 9.4 53 53 SE 3 6 29.99 1015 10 16 N/A
11:55 pm 23:55 Clear 62 16.9 50 10 64 64 N N/A 30.02 1017 10 16 N/A

Powered by AerisWeather